Regional Weather Roundup
Issued by NWS

Home | Current Version | Previous Version | Text Only | Print | Product List | Glossary On
Versions: 1 2 3 4 5 6 7 8 9 10 11 12 13 14 15 16 17 18 19 20 21 22 23 24 25 26 27 28 29 30 31 32 33 34 35 36 37 38 39 40 41 42 43 44 45 46 47 48 49 50
256
ASUS44 KJAN 210110
RWRMS

MISSISSIPPI HOURLY WEATHER ROUNDUP
NATIONAL WEATHER SERVICE JACKSON MS
800 PM CDT SUN APR 20 2014

NOTE: "FAIR: INDICATES FEW OR NO CLOUDS BELOW 12,000 FEET WITH NO
SIGNIFICANT WEATHER AND/OR OBSTRUCTIONS TO VISIBILITY.

MSZ001>002-007>008-010>013-018>021-025>028-034>036-210200-
NORTHWEST MISSISSIPPI

CITY           SKY/WX    TMP DP  RH WIND       PRES   REMARKS
CLARKSDALE       N/A     72  48  43 CALM      30.10R
CLEVELAND      FAIR      72  51  48 E6        30.07S
GREENWOOD      PTCLDY    67  56  67 NE3       30.09S
GREENVILLE     PTCLDY    74  49  41 SE5       30.07S
GRENADA        FAIR      66  52  59 CALM      30.10S
OXFORD         LGT RAIN  66  48  52 CALM      30.12R
TUNICA         MOCLDY    70  48  46 CALM      30.10R
$$

MSZ003>006-009-014>017-022>024-029>033-037>039-210200-
NORTHEAST MISSISSIPPI

CITY           SKY/WX    TMP DP  RH WIND       PRES   REMARKS
BELMONT        FAIR      65  51  58 SW3       30.11R
COLUMBUS AFB   PTCLDY    64  53  67 SW2       30.12R
CORINTH        FAIR      66  50  55 SE5       30.10S
GOLDN TRIANGLE CLEAR     72  48  43 SW3       30.14S
STARKVILLE     FAIR      63  54  72 CALM      30.12S
TUPELO         CLEAR     67  49  52 NW3       30.11R
$$

MSZ040-058-210200-
CENTRAL MISSISSIPPI

CITY           SKY/WX    TMP DP  RH WIND       PRES   REMARKS
JACKSON INTL   CLEAR     67  54  63 CALM      30.10R
JACKSON HAWKNS CLEAR     72  50  45 MISG      30.10R
MERIDIAN KEY   CLEAR     64  53  67 CALM      30.12R
MERIDIAN NAS   CLEAR     65  52  62 CALM      30.12S
RAYMOND        FAIR      64  59  82 CALM      30.09S
VICKSBURG      PTCLDY    72  56  57 E6        30.07S
$$

MSZ059>079-210200-
SOUTH MISSISSIPPI

CITY           SKY/WX    TMP DP  RH WIND       PRES   REMARKS
BROOKHAVEN     FAIR      66  59  77 CALM      30.11S
COLUMBIA       FAIR      64  57  77 MISG      30.10S
HATTIESBURG    CLEAR     68  55  63 CALM      30.11S
MCCOMB         CLEAR     71  52  50 CALM      30.09S
NATCHEZ        CLEAR     72  57  60 CALM      30.08R
PINE BELT      CLEAR     64  54  68 CALM      30.13R
$$

MSZ080>082-210200-
COASTAL MISSISSIPPI

CITY           SKY/WX    TMP DP  RH WIND       PRES   REMARKS
BAY ST LOUIS   CLEAR     64  57  77 SE6       30.12R
BILOXI         CLEAR     65  59  80 S6        30.13R
PASCAGOULA     CLEAR     63  59  87 CALM      30.13R
GULFPORT       CLEAR     67  58  72 SE7       30.12R
$$



USA.gov is the U.S. government's official web portal to all federal, state and local government web resources and services.